Location: Newark
(49.8969°N, 3.3422°E)
Time: 13:38:11
(UTC+00:00)

A-11 Canister half - Pass Details

Date: 21 January 2020
Orbit: 1517 x 1683 km, 47.2° (Epoch: 24 February)

Event Time Altitude Azimuth Distance (km) Brightness Sun altitude
Exits shadow 04:31:09 56° 253° (WSW) 1,769 8.9 -29.0°
Maximum altitude 04:33:18 72° 192° (SSW) 1,587 8.9 -28.7°
Drops below altitude 10° 04:42:35 10° 110° (ESE) 3,717 11.9 -27.2°
Sets 04:45:40 0° 109° (ESE) 4,716 12.7 -26.7°
